{"data":{"norad_id":57130,"epoch":"2026-05-25T04:12:50.537088Z","epoch_age_seconds":70353,"freshness":"FRESH","line1":"1 57130U 23090AF  26145.17558492  .00000586  00000+0  31528-4 0  9990","line2":"2 57130  43.0036 209.2815 0001680 265.8410  94.2249 15.26741561161840","mean_motion":15.26741561,"eccentricity":0.000168,"inclination_deg":43.0036,"raan_deg":209.2815,"arg_perigee_deg":265.841,"mean_anomaly_deg":94.2249,"bstar":3.1528e-5,"rev_number":16184,"period_min":94.31851708136,"perigee_km":484.40773167387,"apogee_km":486.71393414573,"semimajor_km":6863.6978329098,"source":"CELESTRAK","updated_at":"2026-05-25T13:38:18.245466Z"}}